GW5679 Weather Reports


Display with metric or nautical units.
time (UTC)temp
F
wind
direction
speed
MPH
gust
MPH
rain 1hr
in
rain 24hr
in
rain mn
in
humidity
%
barometer
mb
20260504023048 71 153 3.0 6.0 0.00 0.00 0.00 51 1017.2
20260504022543 71 143 3.0 4.0 0.00 0.00 0.00 51 1017.2
20260504022040 71 150 8.0 9.0 0.00 0.00 0.00 50 1017.0
20260504021538 71 135 4.0 10.0 0.00 0.00 0.00 50 1016.9
20260504021034 71 130 3.0 8.0 0.00 0.00 0.00 50 1016.8
20260504020531 71 157 6.0 8.0 0.00 0.00 0.00 50 1017.1
20260504020028 71 156 9.0 14.0 0.00 0.00 0.00 49 1016.9
20260504015524 72 155 6.0 8.0 0.00 0.00 0.00 49 1017.1
20260504015020 72 179 6.0 10.0 0.00 0.00 0.00 48 1017.1
20260504014516 72 165 6.0 8.0 0.00 0.00 0.00 48 1016.9
20260504014014 72 153 7.0 10.0 0.00 0.00 0.00 47 1017.0
20260504013512 73 196 5.0 14.0 0.00 0.00 0.00 47 1016.9
20260504013009 73 146 2.0 8.0 0.00 0.00 0.00 46 1016.9
20260504012506 73 178 6.0 11.0 0.00 0.00 0.00 46 1016.9
20260504012004 73 127 5.0 7.0 0.00 0.00 0.00 45 1016.7
20260504011500 73 164 4.0 9.0 0.00 0.00 0.00 45 1016.7
20260504010955 73 127 8.0 13.0 0.00 0.00 0.00 44 1016.8
20260504010452 73 182 5.0 13.0 0.00 0.00 0.00 44 1016.9
20260504005948 74 150 7.0 10.0 0.00 0.00 0.00 44 1016.8
20260504005445 74 212 6.0 8.0 0.00 0.00 0.00 44 1016.7
20260504004943 74 179 10.0 13.0 0.00 0.00 0.00 43 1016.8
20260504004440 74 194 7.0 10.0 0.00 0.00 0.00 43 1016.7
20260504003937 75 133 9.0 11.0 0.00 0.00 0.00 42 1016.8
20260504003433 75 170 6.0 13.0 0.00 0.00 0.00 42 1016.7
20260504002930 75 182 6.0 10.0 0.00 0.00 0.00 41 1016.6
20260504002427 75 112 3.0 7.0 0.00 0.00 0.00 41 1016.6
20260504001924 76 143 5.0 9.0 0.00 0.00 0.00 40 1016.7
20260504001422 76 144 6.0 10.0 0.00 0.00 0.00 40 1016.6
20260504000918 77 152 3.0 9.0 0.00 0.00 0.00 40 1016.7
20260504000416 77 157 4.0 8.0 0.00 0.00 0.00 39 1016.6
20260503235913 77 148 10.0 11.0 0.00 0.00 0.00 39 1016.6
20260503235410 77 160 5.0 8.0 0.00 0.00 0.00 39 1016.8
20260503234908 77 173 5.0 9.0 0.00 0.00 0.00 38 1016.7
20260503234405 77 159 7.0 10.0 0.00 0.00 0.00 39 1016.6
20260503233903 77 158 8.0 15.0 0.00 0.00 0.00 38 1016.8
20260503233359 78 178 8.0 11.0 0.00 0.00 0.00 38 1017.0
20260503232855 78 228 6.0 11.0 0.00 0.00 0.00 39 1016.9
20260503232353 78 217 6.0 13.0 0.00 0.00 0.00 38 1016.9
20260503231850 78 185 12.0 14.0 0.00 0.00 0.00 37 1016.9
20260503231347 78 160 10.0 13.0 0.00 0.00 0.00 36 1017.0
20260503230843 78 151 7.0 9.0 0.00 0.00 0.00 37 1017.0
20260503230340 78 209 8.0 13.0 0.00 0.00 0.00 37 1016.8
20260503225838 78 191 5.0 11.0 0.00 0.00 0.00 37 1017.0
20260503225334 79 187 6.0 9.0 0.00 0.00 0.00 36 1017.2
20260503224830 79 178 4.0 7.0 0.00 0.00 0.00 36 1017.1
20260503224328 80 130 9.0 10.0 0.00 0.00 0.00 35 1017.0
20260503223825 81 165 9.0 15.0 0.00 0.00 0.00 34 1017.0
20260503223323 81 138 4.0 8.0 0.00 0.00 0.00 33 1017.1
20260503222818 80 210 4.0 6.0 0.00 0.00 0.00 31 1017.3
20260503222317 81 150 5.0 8.0 0.00 0.00 0.00 30 1017.3
20260503221815 80 128 2.0 7.0 0.00 0.00 0.00 30 1017.4
20260503221313 82 124 2.0 10.0 0.00 0.00 0.00 29 1017.5
20260503220809 81 136 1.0 4.0 0.00 0.00 0.00 30 1017.5
20260503220306 80 204 5.0 8.0 0.00 0.00 0.00 29 1017.5
20260503215802 81 173 11.0 13.0 0.00 0.00 0.00 29 1017.7
20260503215259 81 126 9.0 11.0 0.00 0.00 0.00 29 1017.4
20260503214757 82 151 3.0 4.0 0.00 0.00 0.00 28 1017.5
20260503214254 81 195 2.0 3.0 0.00 0.00 0.00 30 1017.6
20260503213752 84 137 4.0 4.0 0.00 0.00 0.00 28 1017.8
20260503213249 82 203 0.0 2.0 0.00 0.00 0.00 29 1017.8
20260503212746 80 153 4.0 8.0 0.00 0.00 0.00 29 1018.0
20260503212244 82 178 2.0 7.0 0.00 0.00 0.00 29 1017.8
20260503211741 81 208 4.0 9.0 0.00 0.00 0.00 29 1018.2
20260503211237 82 199 4.0 9.0 0.00 0.00 0.00 29 1018.3
20260503210732 82 136 3.0 7.0 0.00 0.00 0.00 30 1018.4
20260503210230 82 186 4.0 6.0 0.00 0.00 0.00 30 1018.2
20260503205725 82 197 3.0 8.0 0.00 0.00 0.00 30 1018.3
20260503205222 83 171 4.0 6.0 0.00 0.00 0.00 29 1018.1
20260503204718 82 143 2.0 4.0 0.00 0.00 0.00 29 1018.3
20260503204216 82 120 5.0 8.0 0.00 0.00 0.00 30 1018.4
20260503203713 83 231 2.0 7.0 0.00 0.00 0.00 29 1018.4
20260503203211 83 97 2.0 3.0 0.00 0.00 0.00 29 1018.6
20260503202708 82 179 3.0 3.0 0.00 0.00 0.00 30 1018.6
20260503202206 82 167 3.0 8.0 0.00 0.00 0.00 30 1018.9
20260503201703 84 156 5.0 8.0 0.00 0.00 0.00 30 1018.8
20260503201200 83 161 3.0 6.0 0.00 0.00 0.00 30 1018.9
20260503200656 82 144 3.0 3.0 0.00 0.00 0.00 30 1019.1
20260503200153 82 146 4.0 13.0 0.00 0.00 0.00 30 1019.2
20260503195650 83 192 3.0 7.0 0.00 0.00 0.00 29 1019.0
20260503195147 82 236 2.0 4.0 0.00 0.00 0.00 31 1019.4
20260503194644 81 183 4.0 9.0 0.00 0.00 0.00 29 1019.3
20260503194139 81 113 4.0 8.0 0.00 0.00 0.00 30 1019.4
20260503193637 82 185 7.0 10.0 0.00 0.00 0.00 29 1019.3
20260503193132 82 164 5.0 8.0 0.00 0.00 0.00 29 1019.3
20260503192628 82 219 2.0 11.0 0.00 0.00 0.00 29 1019.5
20260503192124 82 150 5.0 9.0 0.00 0.00 0.00 30 1019.6
20260503191621 82 113 5.0 6.0 0.00 0.00 0.00 30 1019.9
20260503191118 81 114 5.0 9.0 0.00 0.00 0.00 30 1020.0
20260503190615 82 196 8.0 9.0 0.00 0.00 0.00 29 1019.8
20260503190112 82 210 8.0 9.0 0.00 0.00 0.00 29 1019.8
20260503185608 82 181 3.0 8.0 0.00 0.00 0.00 29 1020.2
20260503185108 83 231 4.0 9.0 0.00 0.00 0.00 29 1019.9
20260503184604 84 15 3.0 6.0 0.00 0.00 0.00 28 1020.1
20260503184100 83 167 2.0 6.0 0.00 0.00 0.00 29 1020.4
20260503183557 84 142 2.0 4.0 0.00 0.00 0.00 28 1020.4
20260503183054 83 175 0.0 7.0 0.00 0.00 0.00 30 1020.4
20260503182553 82 161 1.0 3.0 0.00 0.00 0.00 30 1020.5
20260503182050 83 173 2.0 6.0 0.00 0.00 0.00 30 1020.5
20260503181547 82 169 1.0 2.0 0.00 0.00 0.00 31 1020.5
20260503181043 82 42 4.0 7.0 0.00 0.00 0.00 30 1020.6
20260503180541 82 131 2.0 2.0 0.00 0.00 0.00 31 1020.7
20260503180038 81 168 2.0 4.0 0.00 0.00 0.00 31 1020.8
20260503175535 81 113 3.0 4.0 0.00 0.00 0.00 32 1021.0
20260503175033 82 132 2.0 8.0 0.00 0.00 0.00 32 1021.0
20260503174530 82 157 1.0 6.0 0.00 0.00 0.00 32 1021.2
20260503174026 81 123 5.0 7.0 0.00 0.00 0.00 30 1021.2
20260503173521 82 134 3.0 4.0 0.00 0.00 0.00 32 1021.3
20260503173017 81 135 2.0 6.0 0.00 0.00 0.00 31 1021.2
20260503172515 80 137 0.0 2.0 0.00 0.00 0.00 33 1021.4
20260503172012 80 348 4.0 6.0 0.00 0.00 0.00 33 1021.6
20260503171509 80 112 0.0 3.0 0.00 0.00 0.00 32 1021.7
20260503171006 80 140 3.0 6.0 0.00 0.00 0.00 32 1021.7
20260503170502 80 119 3.0 4.0 0.00 0.00 0.00 33 1021.6
20260503150855 77 157 5.0 6.0 0.00 0.00 0.00 39 1021.8
20260503150351 76 129 0.0 2.0 0.00 0.00 0.00 40 1021.7
20260503140315 72 148 2.0 2.0 0.00 0.00 0.00 53 1021.4
20260503131244 68 170 0.0 0.0 0.00 0.00 0.00 65 1021.4
20260503130742 67 132 0.0 0.0 0.00 0.00 0.00 69 1021.1
20260503130239 66 178 0.0 0.0 0.00 0.00 0.00 72 1021.3
20260503120205 57 181 0.0 0.0 0.00 0.00 0.00 86 1020.6
20260503110632 59 183 0.0 0.0 0.00 0.00 0.00 84 1020.1
20260503110130 58 174 0.0 0.0 0.00 0.00 0.00 84 1020.1
20260503081446 60 166 0.0 0.0 0.00 0.00 0.00 77 1019.9
20260503080943 60 167 0.0 0.0 0.00 0.00 0.00 76 1019.8
20260503080439 61 169 0.0 0.0 0.00 0.00 0.00 76 1019.8
20260503072916 61 168 0.0 0.0 0.00 0.00 0.00 75 1019.7
20260503072413 61 166 0.0 0.0 0.00 0.00 0.00 74 1019.6
20260503071910 61 167 0.0 0.0 0.00 0.00 0.00 74 1019.7
20260503071407 62 168 0.0 0.0 0.00 0.00 0.00 73 1019.5
20260503070903 62 174 0.0 0.0 0.00 0.00 0.00 73 1019.9
20260503070400 62 171 0.0 0.0 0.00 0.00 0.00 72 1019.7
20260503060326 64 221 0.0 0.0 0.00 0.00 0.00 66 1019.9
20260503054814 64 192 0.0 0.0 0.00 0.00 0.00 65 1019.9
20260503054310 64 189 0.0 0.0 0.00 0.00 0.00 65 1019.9
20260503053808 64 166 0.0 0.0 0.00 0.00 0.00 64 1019.7
20260503053306 65 162 0.0 0.0 0.00 0.00 0.00 63 1019.7
20260503052802 66 153 1.0 1.0 0.00 0.00 0.00 62 1019.6
20260503052259 66 132 1.0 2.0 0.00 0.00 0.00 62 1019.6
20260503051755 66 107 1.0 2.0 0.00 0.00 0.00 61 1019.6
20260503051252 66 114 2.0 3.0 0.00 0.00 0.00 61 1019.6
20260503050748 66 106 2.0 3.0 0.00 0.00 0.00 61 1019.5
20260503050244 66 353 2.0 3.0 0.00 0.00 0.00 61 1019.6
20260503045742 66 324 2.0 2.0 0.00 0.00 0.00 61 1019.6
20260503045240 66 311 2.0 2.0 0.00 0.00 0.00 61 1019.4
20260503044736 66 66 2.0 2.0 0.00 0.00 0.00 61 1019.3
20260503044233 66 229 0.0 0.0 0.00 0.00 0.00 61 1019.3
20260503043730 66 171 0.0 0.0 0.00 0.00 0.00 60 1019.3
20260503043227 67 159 0.0 1.0 0.00 0.00 0.00 59 1019.5
20260503042723 67 192 1.0 1.0 0.00 0.00 0.00 59 1019.2
20260503042220 67 129 0.0 2.0 0.00 0.00 0.00 58 1019.3
20260503041716 67 101 2.0 2.0 0.00 0.00 0.00 57 1019.4
20260503041214 67 111 2.0 2.0 0.00 0.00 0.00 57 1019.3
20260503040711 68 271 2.0 2.0 0.00 0.00 0.00 56 1019.4
20260503040209 68 334 2.0 2.0 0.00 0.00 0.00 55 1019.4
20260503035705 68 107 0.0 0.0 0.00 0.00 0.00 54 1019.5
20260503035203 69 150 0.0 0.0 0.00 0.00 0.00 54 1019.1
20260503034700 69 134 0.0 0.0 0.00 0.00 0.00 53 1019.1
20260503034157 69 136 0.0 0.0 0.00 0.00 0.00 53 1019.0
20260503033654 69 120 0.0 0.0 0.00 0.00 0.00 53 1019.1
20260503033152 69 139 0.0 0.0 0.00 0.00 0.00 53 1018.8
20260503032650 69 119 0.0 0.0 0.00 0.00 0.00 52 1018.8
20260503032148 70 153 0.0 0.0 0.00 0.00 0.00 51 1019.0
20260503031645 70 132 0.0 1.0 0.00 0.00 0.00 50 1018.7
20260503031143 70 128 0.0 1.0 0.00 0.00 0.00 50 1018.8
20260503030638 70 107 0.0 1.0 0.00 0.00 0.00 50 1018.6
20260503030136 71 92 1.0 2.0 0.00 0.00 0.00 49 1018.8
20260503025632 71 120 1.0 2.0 0.00 0.00 0.00 48 1018.8
20260503025130 71 118 1.0 2.0 0.00 0.00 0.00 48 1018.8
20260503024626 71 113 1.0 2.0 0.00 0.00 0.00 47 1018.8
20260503024123 71 131 0.0 1.0 0.00 0.00 0.00 47 1018.6
20260503023621 71 136 0.0 2.0 0.00 0.00 0.00 46 1018.7